Location: Newark
(46.7636°N, 1.8358°W)
Time: 15:29:53
(UTC+00:00)

Explorer 7 - Visible Passes

Search period start: 17 October 2019 00:00
Search period end: 27 October 2019 00:00
Orbit: 485 x 680 km, 50.3° (Epoch: 17 October)

Date Brightness Start Highest point End Pass type
(mag) Time Alt. Az. Time Alt. Az. Time Alt. Az.
17 Oct 7.7 18:07:05 10° WNW 18:10:58 48° SSW 18:15:03 10° SE visible
17 Oct 9.7 19:49:48 10° WSW 19:50:49 11° SW 19:51:52 10° SSW visible
18 Oct 8.4 18:12:14 10° W 18:15:52 33° SW 18:19:40 10° SSE visible
19 Oct 9.1 18:17:33 10° W 18:20:41 22° SW 18:23:58 10° S visible
20 Oct 9.7 18:23:17 10° WSW 18:25:28 14° SW 18:27:44 10° SSW visible
